Location: A�t �Alizem
(31.2076°N, 8.7872°W)
Time: 14:58:45
(UTC+00:00)

Cosmos 44 - Pass Details

Date: 27 November 2020
Orbit: 574 x 788 km, 65.1° (Epoch: 25 January)

Event Time Altitude Azimuth Distance (km) Brightness Sun altitude
Rises 18:36:30 0° 340° (NNW) 3,230 6.8 -13.6°
Reaches altitude 10° 18:39:01 10° 348° (NNW) 2,321 6.0 -14.1°
Maximum altitude 18:44:05 42° 59° (ENE) 1,111 3.9 -15.2°
Drops below altitude 10° 18:49:12 10° 129° (SE) 2,339 5.7 -16.2°
Enters shadow 18:50:34 - 134° (SE) 2,832 6.1 -16.5°
